Time,TemperatureF,DewpointF,PressureIn,WindDirection,WindDirectionDegrees,WindSpeedMPH,WindSpeedGustMPH,Humidity,HourlyPrecipIn,Conditions,Clouds,dailyrainin,SolarRadiationWatts/m^2,SoftwareType,DateUTC
2013-02-20 00:12:00,51.7,30.0,29.76,North,5,1.0,7.0,44,0.00,,,0.00,0,weatherlink.com 1.10,2013-02-20 07:12:00,
2013-02-20 00:27:00,51.4,30.0,29.77,NNW,346,0.0,7.0,44,0.00,,,0.00,0,weatherlink.com 1.10,2013-02-20 07:27:00,
2013-02-20 00:43:00,51.2,30.0,29.77,North,360,1.0,5.0,45,0.00,,,0.00,0,weatherlink.com 1.10,2013-02-20 07:43:00,
2013-02-20 00:57:00,51.0,30.0,29.77,NW,311,3.0,5.0,45,0.00,,,0.00,0,weatherlink.com 1.10,2013-02-20 07:57:00,
2013-02-20 01:12:00,50.2,30.0,29.77,WNW,296,1.0,5.0,46,0.00,,,0.00,0,weatherlink.com 1.10,2013-02-20 08:12:00,
2013-02-20 01:28:00,49.8,30.0,29.77,WNW,295,3.0,7.0,47,0.00,,,0.00,0,weatherlink.com 1.10,2013-02-20 08:28:00,
2013-02-20 01:43:00,49.8,31.0,29.77,NW,304,4.0,6.0,48,0.00,,,0.00,0,weatherlink.com 1.10,2013-02-20 08:43:00,
2013-02-20 01:58:00,49.9,31.0,29.77,NNW,342,0.0,7.0,48,0.00,,,0.00,0,weatherlink.com 1.10,2013-02-20 08:58:00,
2013-02-20 02:13:00,49.5,31.0,29.78,NNW,333,7.0,9.0,50,0.00,,,0.00,0,weatherlink.com 1.10,2013-02-20 09:13:00,
2013-02-20 02:28:00,49.3,32.0,29.79,NNW,329,8.0,10.0,51,0.00,,,0.00,0,weatherlink.com 1.10,2013-02-20 09:28:00,
2013-02-20 02:43:00,48.6,34.0,29.78,WNW,292,9.0,19.0,58,0.00,,,0.00,0,weatherlink.com 1.10,2013-02-20 09:43:00,
2013-02-20 02:58:00,48.4,34.0,29.79,WNW,287,2.0,11.0,59,0.00,,,0.00,0,weatherlink.com 1.10,2013-02-20 09:58:00,
2013-02-20 03:13:00,48.2,35.0,29.78,WSW,247,2.0,10.0,60,0.00,,,0.00,0,weatherlink.com 1.10,2013-02-20 10:13:00,
2013-02-20 03:28:00,48.0,35.0,29.77,SW,234,6.0,9.0,61,0.00,,,0.00,0,weatherlink.com 1.10,2013-02-20 10:28:00,
2013-02-20 03:43:00,47.8,35.0,29.75,SW,218,4.0,7.0,62,0.00,,,0.00,0,weatherlink.com 1.10,2013-02-20 10:43:00,
2013-02-20 03:58:00,47.4,36.0,29.75,WSW,246,2.0,6.0,66,0.00,,,0.00,0,weatherlink.com 1.10,2013-02-20 10:58:00,
2013-02-20 04:13:00,47.0,36.0,29.75,WSW,240,8.0,10.0,67,0.00,,,0.00,0,weatherlink.com 1.10,2013-02-20 11:13:00,
2013-02-20 04:28:00,47.0,36.0,29.75,SW,236,7.0,13.0,66,0.00,,,0.00,0,weatherlink.com 1.10,2013-02-20 11:28:00,
2013-02-20 04:43:00,46.5,37.0,29.75,West,273,5.0,8.0,70,0.00,,,0.00,0,weatherlink.com 1.10,2013-02-20 11:43:00,
2013-02-20 04:58:00,46.3,37.0,29.75,NW,309,2.0,4.0,71,0.00,,,0.00,0,weatherlink.com 1.10,2013-02-20 11:58:00,
2013-02-20 05:13:00,46.1,38.0,29.75,West,267,3.0,5.0,72,0.00,,,0.00,0,weatherlink.com 1.10,2013-02-20 12:13:00,
2013-02-20 05:28:00,45.8,37.0,29.74,NNW,331,2.0,8.0,70,0.00,,,0.00,0,weatherlink.com 1.10,2013-02-20 12:28:00,
2013-02-20 05:43:00,45.5,36.0,29.74,NW,311,5.0,8.0,69,0.00,,,0.00,0,weatherlink.com 1.10,2013-02-20 12:43:00,
2013-02-20 05:58:00,45.5,34.0,29.75,WNW,293,5.0,10.0,64,0.00,,,0.00,0,weatherlink.com 1.10,2013-02-20 12:58:00,
2013-02-20 06:13:00,45.5,33.0,29.75,West,263,4.0,10.0,63,0.00,,,0.00,0,weatherlink.com 1.10,2013-02-20 13:13:00,
2013-02-20 06:28:00,45.4,33.0,29.75,West,277,1.0,10.0,63,0.00,,,0.00,0,weatherlink.com 1.10,2013-02-20 13:28:00,
2013-02-20 06:43:00,45.2,34.0,29.74,WSW,248,5.0,13.0,65,0.00,,,0.00,0,weatherlink.com 1.10,2013-02-20 13:43:00,
2013-02-20 06:58:00,44.9,34.0,29.74,West,269,4.0,12.0,65,0.00,,,0.00,0,weatherlink.com 1.10,2013-02-20 13:58:00,
2013-02-20 07:13:00,44.7,33.0,29.75,WNW,294,6.0,9.0,64,0.00,,,0.00,5,weatherlink.com 1.10,2013-02-20 14:13:00,
2013-02-20 07:28:00,44.6,33.0,29.75,WNW,293,3.0,10.0,65,0.00,,,0.00,14,weatherlink.com 1.10,2013-02-20 14:28:00,
2013-02-20 07:43:00,44.7,33.0,29.75,WSW,255,1.0,8.0,65,0.00,,,0.00,23,weatherlink.com 1.10,2013-02-20 14:43:00,
2013-02-20 07:58:00,44.7,34.0,29.75,WNW,301,3.0,7.0,66,0.00,,,0.00,35,weatherlink.com 1.10,2013-02-20 14:58:00,
2013-02-20 08:13:00,44.9,34.0,29.76,West,271,3.0,13.0,66,0.00,,,0.00,60,weatherlink.com 1.10,2013-02-20 15:13:00,
2013-02-20 08:28:00,45.1,34.0,29.76,SW,236,10.0,12.0,65,0.00,,,0.00,56,weatherlink.com 1.10,2013-02-20 15:28:00,
2013-02-20 08:44:00,45.4,34.0,29.76,West,272,2.0,9.0,65,0.00,,,0.00,97,weatherlink.com 1.10,2013-02-20 15:44:00,
2013-02-20 08:59:00,45.7,34.0,29.76,WNW,297,3.0,9.0,65,0.00,,,0.00,98,weatherlink.com 1.10,2013-02-20 15:59:00,
2013-02-20 09:14:00,45.8,35.0,29.75,WSW,254,0.0,7.0,65,0.00,,,0.00,76,weatherlink.com 1.10,2013-02-20 16:14:00,
2013-02-20 09:29:00,46.1,34.0,29.75,WSW,246,8.0,10.0,63,0.00,,,0.00,77,weatherlink.com 1.10,2013-02-20 16:29:00,
2013-02-20 09:44:00,46.5,33.0,29.75,WSW,249,9.0,15.0,59,0.00,,,0.00,98,weatherlink.com 1.10,2013-02-20 16:44:00,
2013-02-20 09:59:00,46.8,33.0,29.75,NW,310,5.0,12.0,59,0.00,,,0.00,74,weatherlink.com 1.10,2013-02-20 16:59:00,
2013-02-20 10:14:00,47.2,33.0,29.74,WSW,258,6.0,12.0,58,0.00,,,0.00,83,weatherlink.com 1.10,2013-02-20 17:14:00,
2013-02-20 10:29:00,47.5,33.0,29.74,WNW,288,9.0,18.0,57,0.00,,,0.00,72,weatherlink.com 1.10,2013-02-20 17:29:00,
2013-02-20 10:44:00,47.7,33.0,29.74,West,275,12.0,16.0,57,0.00,,,0.00,123,weatherlink.com 1.10,2013-02-20 17:44:00,
2013-02-20 10:59:00,48.0,34.0,29.74,WSW,244,8.0,15.0,58,0.00,,,0.00,192,weatherlink.com 1.10,2013-02-20 17:59:00,
2013-02-20 11:14:00,48.4,33.0,29.73,SW,234,9.0,22.0,56,0.00,,,0.00,171,weatherlink.com 1.10,2013-02-20 18:14:00,
2013-02-20 11:29:00,47.3,35.0,29.73,West,266,7.0,18.0,63,0.00,,,0.00,98,weatherlink.com 1.10,2013-02-20 18:29:00,
2013-02-20 11:44:00,45.5,38.0,29.74,NW,315,8.0,18.0,75,0.00,,,0.00,74,weatherlink.com 1.10,2013-02-20 18:44:00,
2013-02-20 11:59:00,40.7,33.0,29.76,NW,319,8.0,21.0,75,0.03,,,0.03,35,weatherlink.com 1.10,2013-02-20 18:59:00,
2013-02-20 12:14:00,34.4,31.0,29.76,NW,311,6.0,16.0,87,0.06,,,0.06,46,weatherlink.com 1.10,2013-02-20 19:14:00,
2013-02-20 12:29:00,33.4,31.0,29.77,North,355,6.0,16.0,90,0.09,,,0.09,42,weatherlink.com 1.10,2013-02-20 19:29:00,
2013-02-20 12:44:00,35.1,33.0,29.78,NW,312,2.0,14.0,93,0.12,,,0.12,62,weatherlink.com 1.10,2013-02-20 19:44:00,
2013-02-20 12:59:00,35.1,33.0,29.80,WNW,290,4.0,9.0,92,0.11,,,0.14,84,weatherlink.com 1.10,2013-02-20 19:59:00,
2013-02-20 13:14:00,34.9,33.0,29.81,NNW,337,6.0,18.0,92,0.09,,,0.15,69,weatherlink.com 1.10,2013-02-20 20:14:00,
2013-02-20 13:29:00,35.2,33.0,29.84,NW,310,4.0,13.0,90,0.07,,,0.16,72,weatherlink.com 1.10,2013-02-20 20:29:00,
2013-02-20 13:45:00,35.2,33.0,29.82,NW,322,4.0,10.0,90,0.04,,,0.16,70,weatherlink.com 1.10,2013-02-20 20:45:00,
2013-02-20 13:59:00,35.5,32.0,29.82,NW,319,5.0,12.0,87,0.03,,,0.17,97,weatherlink.com 1.10,2013-02-20 20:59:00,
2013-02-20 14:15:00,36.1,33.0,29.82,WSW,242,1.0,5.0,87,0.02,,,0.17,88,weatherlink.com 1.10,2013-02-20 21:15:00,
2013-02-20 14:29:00,35.8,33.0,29.82,South,169,0.0,6.0,90,0.01,,,0.17,91,weatherlink.com 1.10,2013-02-20 21:29:00,
2013-02-20 14:44:00,35.7,33.0,29.82,SSE,167,2.0,7.0,90,0.01,,,0.17,151,weatherlink.com 1.10,2013-02-20 21:44:00,
2013-02-20 14:59:00,37.6,35.0,29.82,South,173,4.0,8.0,91,0.00,,,0.17,744,weatherlink.com 1.10,2013-02-20 21:59:00,
2013-02-20 15:14:00,39.2,35.0,29.82,SSE,148,4.0,7.0,84,0.00,,,0.17,578,weatherlink.com 1.10,2013-02-20 22:14:00,
2013-02-20 15:30:00,39.1,33.0,29.83,South,178,3.0,7.0,80,0.00,,,0.17,190,weatherlink.com 1.10,2013-02-20 22:30:00,
2013-02-20 15:44:00,39.0,32.0,29.83,SSE,165,1.0,4.0,77,0.00,,,0.17,153,weatherlink.com 1.10,2013-02-20 22:44:00,
2013-02-20 16:00:00,39.3,31.0,29.82,SSE,165,0.0,3.0,72,0.00,,,0.17,118,weatherlink.com 1.10,2013-02-20 23:00:00,
2013-02-20 16:14:00,39.4,32.0,29.82,South,173,3.0,4.0,75,0.00,,,0.17,214,weatherlink.com 1.10,2013-02-20 23:14:00,
2013-02-20 16:29:00,39.2,30.0,29.83,South,175,2.0,4.0,70,0.00,,,0.17,65,weatherlink.com 1.10,2013-02-20 23:29:00,
2013-02-20 16:44:00,40.1,30.0,29.83,SE,126,0.0,2.0,67,0.00,,,0.17,100,weatherlink.com 1.10,2013-02-20 23:44:00,
2013-02-20 16:59:00,39.9,30.0,29.84,West,263,1.0,2.0,67,0.00,,,0.17,100,weatherlink.com 1.10,2013-02-20 23:59:00,
2013-02-20 17:14:00,38.5,32.0,29.86,WNW,286,4.0,7.0,76,0.01,,,0.18,100,weatherlink.com 1.10,2013-02-21 00:14:00,
2013-02-20 17:29:00,36.5,32.0,29.87,West,272,5.0,6.0,84,0.02,,,0.19,100,weatherlink.com 1.10,2013-02-21 00:29:00,
2013-02-20 17:45:00,33.9,31.0,29.88,West,269,0.0,5.0,88,0.02,,,0.19,100,weatherlink.com 1.10,2013-02-21 00:45:00,
2013-02-20 18:00:00,33.1,30.0,29.89,NNW,327,1.0,2.0,89,0.02,,,0.19,0,weatherlink.com 1.10,2013-02-21 01:00:00,
2013-02-20 18:15:00,32.6,30.0,29.89,NNW,327,0.0,1.0,91,0.01,,,0.19,0,weatherlink.com 1.10,2013-02-21 01:15:00,
2013-02-20 18:30:00,32.5,31.0,29.90,NNW,327,0.0,0.0,92,0.00,,,0.19,0,weatherlink.com 1.10,2013-02-21 01:30:00,
2013-02-20 18:45:00,32.4,30.0,29.91,NNW,327,0.0,0.0,92,0.00,,,0.19,0,weatherlink.com 1.10,2013-02-21 01:45:00,
2013-02-20 19:00:00,32.4,31.0,29.92,NNW,327,0.0,0.0,93,0.00,,,0.19,0,weatherlink.com 1.10,2013-02-21 02:00:00,
2013-02-20 19:15:00,32.3,31.0,29.93,NNW,327,0.0,1.0,93,0.00,,,0.19,0,weatherlink.com 1.10,2013-02-21 02:15:00,
2013-02-20 19:30:00,32.3,31.0,29.94,NNW,327,0.0,0.0,93,0.00,,,0.19,0,weatherlink.com 1.10,2013-02-21 02:30:00,
2013-02-20 19:45:00,32.3,31.0,29.95,NNW,327,0.0,0.0,93,0.00,,,0.19,0,weatherlink.com 1.10,2013-02-21 02:45:00,
2013-02-20 20:00:00,32.4,31.0,29.96,NNW,327,0.0,0.0,94,0.00,,,0.19,0,weatherlink.com 1.10,2013-02-21 03:00:00,
2013-02-20 20:15:00,32.6,31.0,29.97,NNW,333,0.0,0.0,94,0.00,,,0.19,0,weatherlink.com 1.10,2013-02-21 03:15:00,
2013-02-20 20:31:00,32.7,31.0,29.98,NNE,15,0.0,1.0,94,0.00,,,0.19,0,weatherlink.com 1.10,2013-02-21 03:31:00,
2013-02-20 20:45:00,32.9,31.0,29.99,NNE,16,0.0,1.0,94,0.00,,,0.19,0,weatherlink.com 1.10,2013-02-21 03:45:00,
2013-02-20 21:00:00,32.5,31.0,30.00,NNE,16,0.0,0.0,94,0.00,,,0.19,0,weatherlink.com 1.10,2013-02-21 04:00:00,
2013-02-20 21:15:00,32.3,31.0,30.01,NNE,16,0.0,0.0,94,0.00,,,0.19,0,weatherlink.com 1.10,2013-02-21 04:15:00,
2013-02-20 21:30:00,32.1,31.0,30.01,NNE,16,0.0,0.0,94,0.00,,,0.19,0,weatherlink.com 1.10,2013-02-21 04:30:00,
2013-02-20 21:45:00,32.1,31.0,30.02,NNE,26,0.0,0.0,94,0.00,,,0.19,0,weatherlink.com 1.10,2013-02-21 04:45:00,
2013-02-20 22:00:00,32.1,31.0,30.03,NNE,32,0.0,0.0,94,0.00,,,0.19,0,weatherlink.com 1.10,2013-02-21 05:00:00,
2013-02-20 22:15:00,32.1,31.0,30.04,NE,40,0.0,0.0,95,0.00,,,0.19,0,weatherlink.com 1.10,2013-02-21 05:15:00,
2013-02-20 22:30:00,32.2,31.0,30.04,NE,40,0.0,0.0,95,0.00,,,0.19,0,weatherlink.com 1.10,2013-02-21 05:30:00,
2013-02-20 22:46:00,32.2,31.0,30.05,NE,40,0.0,0.0,95,0.00,,,0.19,0,weatherlink.com 1.10,2013-02-21 05:46:00,
2013-02-20 23:00:00,32.4,31.0,30.05,NE,40,0.0,0.0,95,0.00,,,0.19,0,weatherlink.com 1.10,2013-02-21 06:00:00,
2013-02-20 23:15:00,32.4,31.0,30.05,NE,46,0.0,0.0,95,0.00,,,0.19,0,weatherlink.com 1.10,2013-02-21 06:15:00,
2013-02-20 23:31:00,32.2,31.0,30.06,NE,54,0.0,1.0,95,0.00,,,0.19,0,weatherlink.com 1.10,2013-02-21 06:31:00,
2013-02-20 23:45:00,32.1,31.0,30.06,NE,56,0.0,1.0,95,0.00,,,0.19,0,weatherlink.com 1.10,2013-02-21 06:45:00,